Flag for Norway Weather past 2 weeks in Harstad, Norway

Now
50 °F

Broken clouds.


Feels Like: 46 °F
Forecast: 44 / 54 °F
Wind: 9 mph from Southwest

Location: Evenes

Current Time: May 30, 2015 at 10:49:25 AM

Latest Report: May 30, 2015 at 9:50 AM


Visibility: N/A

Pressure: 29.62 "Hg

Humidity: 82%

Dew point: 45 °F

Location of HarstadLocation

Historic Weather in Harstad — Graph

°F

Harstad temperature yesterday

Maximum temperature yesterday: 57 °F (at 3:50 PM)
Minimum temperature yesterday: 43 °F (at 3:20 AM)
Average temperature yesterday: 49 °F

Past Weeks' High & Low Weather Summary

 TemperatureHumidityPressure
High61 °F (May 26, 3:50 PM)100% (May 19, 3:50 AM)30.01 "Hg (May 19, 3:50 AM)
Low28 °F (May 16, 3:20 AM)34% (May 26, 3:50 PM)29.45 "Hg (May 23, 2:20 PM)
Average44 °F71%29.74 "Hg
* Reported May 15 9:50 AM — May 30 9:50 AM, Harstad, Weather by CustomWeather, © 2015

Note: Actual official high and low records may vary slightly from our data, if they occured in-between our weather recording intervals... More about our weather records

Advertising

Harstad weather history for previous 24 hours

 ConditionsComfort  
Time TempWeatherWind HumidityBarometerVisibility
9:50 AM
Sat, May 30
50 °FBroken clouds.9 mph82%29.62 "HgN/A
9:20 AM50 °FBroken clouds.10 mph82%29.62 "HgN/A
8:50 AM50 °FPartly sunny.9 mph82%29.59 "HgN/A
8:20 AM50 °FPartly sunny.8 mph76%29.59 "HgN/A
7:50 AM50 °FPartly sunny.6 mph76%29.56 "HgN/A
6:50 AM48 °FBroken clouds.6 mph87%29.56 "HgN/A
6:20 AM48 °FPartly sunny.5 mph87%29.56 "HgN/A
5:50 AM46 °FPartly sunny.5 mph87%29.53 "HgN/A
5:20 AM46 °FPartly sunny.5 mph87%29.53 "HgN/A
4:50 AM46 °FScattered clouds.5 mph87%29.53 "HgN/A
4:20 AM46 °FCool.5 mph87%29.53 "HgN/A
3:50 AM45 °FScattered clouds.3 mph93%29.53 "HgN/A
3:20 AM45 °FPassing clouds.3 mph93%29.53 "HgN/A
2:50 AM46 °FScattered clouds.1 mph93%29.53 "HgN/A
2:20 AM46 °FScattered clouds.1 mph93%29.53 "HgN/A
1:50 AM46 °FPartly sunny.2 mph93%29.53 "HgN/A
12:50 AM46 °FLight rain. Broken clouds.3 mph93%29.53 "HgN/A
11:50 PM
Fri, May 29
50 °FPartly sunny.3 mph76%29.53 "HgN/A
10:50 PM50 °FPassing clouds.7 mph71%29.53 "HgN/A
9:50 PM50 °FScattered clouds.10 mph71%29.53 "HgN/A
9:20 PM50 °FScattered showers. Scattered clouds.9 mph71%29.53 "HgN/A
8:50 PM52 °FSunny.13 mph67%29.50 "Hg10 mi
7:50 PM52 °FSunny.13 mph67%29.50 "Hg10 mi
6:50 PM55 °FSunny.10 mph59%29.53 "Hg10 mi
5:50 PM55 °FSunny.12 mph59%29.53 "Hg10 mi
4:50 PM55 °FSunny.12 mph59%29.53 "Hg10 mi
3:50 PM57 °FPassing clouds.10 mph55%29.53 "HgN/A
2:50 PM55 °FPassing clouds.12 mph59%29.53 "HgN/A
1:50 PM55 °FPassing clouds.9 mph59%29.56 "HgN/A
1:20 PM55 °FPassing clouds.10 mph67%29.56 "HgN/A
12:50 PM55 °FScattered clouds.8 mph67%29.56 "HgN/A
11:09 AM50 °FPartly sunny.8 mph76%29.56 "HgN/A
Weather by CustomWeather, © 2015

See weather overviewHow to use our weather pages